User: anonymous   Login
Location: Unspecified
(0.0000°N, 0.0000°E)
Time: 12:29:41
(UTC+00:00)
Language:

TDRS 1 - Orbit

View from above orbital plane
View from above orbital plane
View from above satellite
View from above satellite

Ground track
Ground track

The orbit data is extracted from the following two-line orbital elements,

1 13969U 83026B   18292.68712510 +.00000025 +00000-0 +00000-0 0  9996
2 13969 013.0628 340.0911 0019906 204.5085 165.4124 00.98741311102748
Epoch (UTC): 19 October 2018 16:29:27
Eccentricity: 0.0019906
inclination: 13.0628°
perigee height: 36136 km
apogee height: 36305 km
right ascension of ascending node: 340.0911°
argument of perigee: 204.5085°
revolutions per day: 0.98741311
mean anomaly at epoch: 165.4124°
orbit number at epoch: 10274

The dashed part of the orbit path shows where the satellite is in the earth's shadow,  

DLR